Weather History for Broomfield, CO

Change the Weather History Date:

Saturday, November 27, 2010

  Actual Average Record
Temperature  
Mean Temperature 42 °F -  
Max Temperature 53 °F 47 °F 73 °F (1998)
Min Temperature 32 °F 27 °F 8 °F (2001)
Degree Days  
Heating Degree Days 22    
Moisture  
Dew Point 7 °F    
Average Humidity 28    
Maximum Humidity 55    
Minimum Humidity 12    
Precipitation  
Precipitation 0.00 in - - ()
Sea Level Pressure  
Sea Level Pressure 29.80 in    
Wind  
Wind Speed 3 mph (WNW)    
Max Wind Speed 10 mph    
Max Gust Speed -    
Visibility 10 miles    
Events      
Averages and records for this station are not official NWS values.
T = Trace of Precipitation, MM = Missing Value Source: NWS Daily Summary

Daily Weather History Graph

Daily Weather History Graph

Search for Another Location

Airport:

Trip Planner

Search our weather history database for the weather conditions in past years. The results will help you decide how hot, cold, wet, or windy it might be!

Date:

Astronomy

Nov. 27, 2010 Rise Set
Actual Time 6:58 AM MST 4:37 PM MST
Civil Twilight 6:28 AM MST 5:06 PM MST
Nautical Twilight 5:55 AM MST 5:40 PM MST
Astronomical Twilight 5:23 AM MST 6:12 PM MST
Moon 11:00 PM MST (11/27) 11:39 AM MST (11/27)
Length of Visible Light 10h 38m
Length of Day
9h 38m
Waning Gibbous, 62% of the Moon is Illuminated
Nov 27
Waning Gibbous
Nov 28
Last Quarter
Dec 5
New
Dec 13
First Quarter
Dec 21
Full

Hourly Weather History & Observations

Time (MST) Temp. Windchill Dew Point Humidity Pressure Visibility Wind Dir Wind Speed Gust Speed Precip Events Conditions
12:15 AM 32.0 °F 28.7 °F 10.4 °F 41% 30.07 in 10.0 mi West 3.5 mph - N/A   Clear
12:35 AM 32.0 °F - 8.6 °F 38% 30.06 in 10.0 mi Calm Calm - N/A   Clear
12:55 AM 32.0 °F 28.7 °F 8.6 °F 38% 30.06 in 10.0 mi SSW 3.5 mph - N/A   Clear
1:15 AM 32.0 °F 28.7 °F 8.6 °F 38% 30.05 in 10.0 mi South 3.5 mph - N/A   Clear
1:35 AM 32.0 °F - 8.6 °F 38% 30.04 in 10.0 mi Calm Calm - N/A   Clear
1:55 AM 32.0 °F 27.5 °F 8.6 °F 38% 30.03 in 10.0 mi West 4.6 mph - N/A   Clear
2:15 AM 32.0 °F 27.5 °F 6.8 °F 35% 30.03 in 10.0 mi West 4.6 mph - N/A   Clear
2:35 AM 35.6 °F 32.8 °F 5.0 °F 28% 30.03 in 10.0 mi West 3.5 mph - N/A   Clear
2:55 AM 35.6 °F 31.7 °F 5.0 °F 28% 30.02 in 10.0 mi West 4.6 mph - N/A   Clear
3:15 AM 33.8 °F - 5.0 °F 30% 30.01 in 10.0 mi Calm Calm - N/A   Clear
3:35 AM 32.0 °F - 6.8 °F 35% 30.01 in 10.0 mi Calm Calm - N/A   Clear
3:55 AM 32.0 °F 27.5 °F 17.6 °F 55% 30.00 in 10.0 mi South 4.6 mph - N/A   Clear
5:52 AM 33.8 °F 30.8 °F 5.0 °F 30% 29.96 in 10.0 mi WNW 3.5 mph - N/A   Partly Cloudy
6:47 AM 33.8 °F 26.4 °F 6.8 °F 32% 29.94 in 60.0 mi NW 9.2 mph - N/A   Partly Cloudy
7:48 AM 32.0 °F - 5.0 °F 32% 29.93 in 60.0 mi Calm Calm - N/A   Scattered Clouds
8:48 AM 37.4 °F - 8.6 °F 30% 29.92 in 50.0 mi Calm Calm - N/A   Scattered Clouds
9:45 AM 42.8 °F 41.1 °F 6.8 °F 23% 29.89 in 50.0 mi Variable 3.5 mph - N/A   Scattered Clouds
10:50 AM 48.2 °F - 6.8 °F 19% 29.86 in 50.0 mi North 5.8 mph - N/A   Mostly Cloudy
11:48 AM 48.2 °F - 6.8 °F 19% 29.82 in 60.0 mi North 4.6 mph - N/A   Mostly Cloudy
12:48 PM 50.0 °F - 8.6 °F 19% 29.78 in 50.0 mi NNW 8.1 mph - N/A   Mostly Cloudy
1:57 PM 53.6 °F - 8.6 °F 16% 29.74 in 50.0 mi NNW 8.1 mph - N/A   Scattered Clouds
2:46 PM 53.6 °F - 3.2 °F 13% 29.74 in 50.0 mi North 3.5 mph - N/A   Mostly Cloudy
3:47 PM 53.6 °F - 1.4 °F 12% 29.73 in 50.0 mi East 3.5 mph - N/A   Mostly Cloudy
4:47 PM 46.4 °F 44.3 °F 6.8 °F 20% 29.72 in 30.0 mi North 4.6 mph - N/A   Mostly Cloudy
5:54 PM 39.2 °F 37.0 °F 8.6 °F 28% 29.70 in 30.0 mi SW 3.5 mph - N/A   Scattered Clouds
6:46 PM 37.4 °F 34.9 °F 8.6 °F 30% 29.67 in 30.0 mi SSW 3.5 mph - N/A   Partly Cloudy
7:48 PM 39.2 °F 37.0 °F 6.8 °F 26% 29.64 in 30.0 mi WSW 3.5 mph - N/A   Clear
8:15 PM 41.0 °F - 5.0 °F 23% 29.62 in 10.0 mi Calm Calm - N/A   Clear
8:35 PM 41.0 °F - 3.2 °F 21% 29.61 in 10.0 mi Calm Calm - N/A   Clear
8:47 PM 41.0 °F - 1.4 °F 19% 29.60 in 30.0 mi Calm Calm - N/A   Clear
8:55 PM 42.8 °F - 3.2 °F 19% 29.59 in 10.0 mi Calm Calm - N/A   Clear
9:15 PM 39.2 °F 33.6 °F 5.0 °F 24% 29.59 in 10.0 mi NNW 8.1 mph - N/A   Clear
9:35 PM 41.0 °F 34.7 °F 5.0 °F 23% 29.58 in 10.0 mi NW 10.4 mph - N/A   Clear
9:47 PM 37.4 °F 33.8 °F 5.0 °F 26% 29.58 in 30.0 mi West 4.6 mph - N/A   Clear
9:55 PM 37.4 °F - 5.0 °F 26% 29.58 in 10.0 mi Calm Calm - N/A   Clear
10:15 PM 37.4 °F - 5.0 °F 26% 29.57 in 10.0 mi Calm Calm - N/A   Clear
10:35 PM 37.4 °F 33.8 °F 5.0 °F 26% 29.57 in 10.0 mi NNE 4.6 mph - N/A   Clear
10:54 PM 35.6 °F 31.7 °F 6.8 °F 30% 29.57 in 10.0 mi North 4.6 mph - N/A   Clear
11:14 PM 33.8 °F 29.6 °F 8.6 °F 35% 29.57 in 10.0 mi NNW 4.6 mph - N/A   Clear
11:35 PM 32.0 °F 27.5 °F 8.6 °F 38% 29.56 in 10.0 mi West 4.6 mph - N/A   Clear
11:55 PM 33.8 °F 28.6 °F 5.0 °F 30% 29.56 in 10.0 mi WNW 5.8 mph - N/A   Clear